Owendale, MI

11:09 AM EST on March 06, 2015 (GMT -0500)
Huron Doll Repair Bad Axe (989) 269-7766 | Change Station
CLOSE
Current Station
Personal Weather Station
Location: Bad Axe, MI
Elevation: 761 ft
Nearby Weather Stations

Elev 761 ft 43.80 °N, 83.02 °W | Updated 2 minutes ago

Clear
Clear
15.7 °F
Feels Like -2 °F
N
22.0
Wind Variable Wind from SSW

Today
High -- | Low -- °F
--% Chance of Precip.
Yesterday
High -- | Low -- °F
Precip. -- in
7:01 AM 6:27 PM
Full, 99% visible
Pressure 30.36 in
Visibility 10.0 miles
Clouds Clear
Windchill -2 °F
Dew Point 5 °F
Humidity 62%
Rainfall in
Snow Depth Not available.
UV 4 out of 12
Pollen .50 out of 12
Air Quality Not available.
Flu Activity Not available.
METAR KBAX 061555Z AUTO 23011G18KT 200V260 10SM CLR M09/M14 A3036 RMK AO2 T10911141

More Conditions Fewer Conditions

Pressure 30.36 in
Visibility 10.0 miles
Clouds Clear
Windchill -2 °F
Dew Point 5 °F
Humidity 62%
Rainfall in
Snow Depth Not available.
UV 4 out of 12
Pollen .50 out of 12
Air Quality Not available.
Flu Activity Not available.
METAR KBAX 061555Z AUTO 23011G18KT 200V260 10SM CLR M09/M14 A3036 RMK AO2 T10911141

More Conditions Fewer Conditions

10-Day Weather Forecast

Almanac

Astronomy

Mar. 06, 2015 Rise Set
Actual Time
Civil Twilight
Nautical Twilight
Astronomical Twilight
Moon
Length of Visible Light
Length of Day
Tomorrow will be .
, % of the Moon is Illuminated

Today's Extremes

State Highs State Lows

Community

WunderPhotos

Upload Photos

1,803,327 photos uploaded!

WunderBlogs® & News

Nearby

Air Quality

  Air Quality AQ Index Pollutant
Not available.

Snow Depth

Station Depth Elevation

Earthquake Activity

City Distance Mag. Time & Date
Minimum magnitude displayed is 2.5.

Coastal Water Temperatures

Place Temperature

Nearby Weather Stations